Tracking 32420 objects as of 8-Dec-2025
HD Live streaming from Space Station
objects crossing your sky now

AUREOLE 2

Track AUREOLE 2 now!
10-day predictions
AUREOLE 2 is classified as:


NORAD ID: 7003
Int'l Code: 1973-107A
Perigee: 325.0 km
Apogee: 536.5 km
Inclination: 73.9 °
Period: 93.0 minutes
Semi major axis: 6801 km
RCS: 2.1042 m2 (large)
Launch date: December 26, 1973
Source: France (FR)
Launch site: PLESETSK MISSILE AND SPACE COMPLEX (PKMTR)
Your satellite tracking list
Your tracking list is empty




NASA's NSSDC Master Catalog

Two Line Element Set (TLE):
1 07003U 73107A   25341.99236541  .00043573  00000-0  51691-3 0  9999
2 07003  73.9004 245.5158 0155477 232.0032 126.7057 15.47632816674677
Source of the keplerian elements: AFSPC